Regional Weather Roundup
Issued by NWS

Home | Current Version | Previous Version | Graphics & Text | Print | Product List | Glossary On
Versions: 1 2 3 4 5 6 7 8 9 10 11 12 13 14 15 16 17 18 19 20 21 22 23 24 25 26 27 28 29 30 31 32 33 34 35 36 37 38 39 40 41 42 43 44 45 46 47 48 49 50
000
ASUS44 KMEG 292000
RWRTN
TENNESSEE HOURLY STATE WEATHER ROUNDUP
NATIONAL WEATHER SERVICE MEMPHIS TN
300 PM CDT SAT APR 29 2017

TNZ002-004-019-021-049-052-054-088>092-292100-
WEST TENNESSEE

CITY           SKY/WX    TMP DP  RH WIND       PRES   REMARKS
MEMPHIS INTL   PTSUNNY   87  69  54 S23G30    29.84F HX  91
NWS MEMPHIS      N/A     87 N/A N/A MISG        N/A
JACKSON        MOSUNNY   85  70  60 S14G23    29.90S
DYERSBURG      PTSUNNY   86  69  56 S15G24    29.86F HX  90
$$

TNZ008-025-027-028-033-062-065-066-292100-
NORTH MIDDLE TENNESSEE

CITY           SKY/WX    TMP DP  RH WIND       PRES   REMARKS
NASHVILLE      PTSUNNY   91  64  40 S16G25    29.97F HX  92
CLARKSVILLE    CLOUDY    86  65  49 S14G22    29.93F
SMYRNA         MOSUNNY   88  67  49 S13G23    29.97F HX  91
CROSSVILLE     MOSUNNY   82  64  54 S15G24    30.10F
$$

TNZ061-075-076-078-094-096-097-292100-
SOUTH MIDDLE TENNESSEE

CITY           SKY/WX    TMP DP  RH WIND       PRES   REMARKS
TULLAHOMA      SUNNY     86  63  45 S16       30.03S
WINCHESTER     MOSUNNY   88  66  48 S13       30.03S HX  90
COLUMBIA       MOSUNNY   84  70  61 S13       29.96F
SHELBYVILLE    MOSUNNY   88  70  55 S20       30.00F HX  92
$$

TNZ017-018-042-046-047-292100-
NORTHEAST TENNESSEE

CITY           SKY/WX    TMP DP  RH WIND       PRES   REMARKS
TRI CITIES     PTSUNNY   88  63  43 SW6       30.08F
$$

TNZ012-013-036-069-073-074-292100-
CENTRAL EAST TENNESSEE

CITY           SKY/WX    TMP DP  RH WIND       PRES   REMARKS
KNOXVILLE      PTSUNNY   88  63  43 SW14      30.05F
OAK RIDGE      MOSUNNY   89  62  40 S7        30.07F
GATLINBURG     SUNNY     86  66  51 CALM      30.04F
$$

TNZ083-085-099-292100-
SOUTHEAST TENNESSEE

CITY           SKY/WX    TMP DP  RH WIND       PRES   REMARKS
CHATTANOOGA    PTSUNNY   89  65  44 S10G23    30.04F HX  91
$$

SKY/WX REPORTED AS FAIR MEANS FEW OR NO CLOUDS BELOW
12 THOUSAND FEET.




USA.gov is the U.S. government's official web portal to all federal, state and local government web resources and services.